www.pogodaiklimat.ru

Погода и климат >> Архив погоды >> Россия >> Красноярский край >> Светлогорск


ПОГОДА в Светлогорске

  • Прогноз погоды в Светлогорске
  • Монитор погоды в Светлогорске

АРХИВ ПОГОДЫ в Светлогорске

Время (UTC), дата Ветер
(напр.,м/с)
 
Видим.   Явления Облачность Т
(С)
Тd
(С)
f
(%)
Тe
(С)
Тes
(С)
Комфортность P
(гПа)
Po
(гПа)
Тmin
(С)
Tmax
(С)
R
(мм)
R24
(мм)
S
(см)
18 17.08 Ю 1 н/о н/о +13.9 +11.2 84 +14 +14 1016.0 1003.9
21 17.08 ЮЗ 1 н/о н/о +13.1 +9.8 80 +13 +13 1016.2 1004.1
00 18.08 Ю 2 н/о н/о +15.8 +9.8 67 +16 +16 1016.0 1004.0 +11.6
03 18.08 Ю 2 н/о н/о +18.2 +10.4 60 +19 +19 1015.6 1003.7
06 18.08 Ю 2 н/о н/о +18.4 +12.1 67 +19 +19 1015.3 1003.4
09 18.08 СВ 1 н/о н/о +17.7 +14.4 81 +19 +19 1014.7 1002.8
12 18.08 Ю 1 н/о н/о +16.0 +14.2 89 +17 +17 1014.8 1002.8 +19.5 0.0
15 18.08 В 1 н/о н/о +14.5 +13.3 93 +15 +15 1014.9 1002.9
18 18.08 СЗ 1 н/о н/о +13.3 +12.3 94 +13 +13 1014.9 1002.8
21 18.08 В 2 н/о н/о +14.6 +13.4 93 +14 +14 1014.9 1002.9
00 19.08 СВ 2 н/о н/о +13.8 +11.0 83 +13 +13 1015.6 1003.6 +12.3
03 19.08 СВ 2 н/о н/о +17.8 +11.5 67 +18 +18 1015.8 1003.9
06 19.08 СВ 2 н/о н/о +20.2 +11.9 59 +23 +23 комфорт 1016.3 1004.5
09 19.08 СВ 2 н/о н/о +21.9 +12.0 53 +24 +24 комфорт 1016.4 1004.7
12 19.08 СВ 2 н/о н/о +20.7 +12.0 57 +23 +23 комфорт 1016.9 1005.1 +22.4
15 19.08 СВ 1 н/о н/о +15.1 +13.2 88 +16 +16 1018.3 1006.3
18 19.08 С 1 н/о н/о +12.9 +12.0 94 +13 +13 1019.1 1007.0
21 19.08 СВ 1 н/о н/о +11.3 +10.5 95 +11 +11 1019.7 1007.5
00 20.08 СВ 2 н/о н/о +13.5 +11.1 85 +13 +13 1020.2 1008.1 +11.2
03 20.08 СВ 1 н/о н/о +17.5 +11.6 68 +19 +19 1020.5 1008.5
06 20.08 С 2 н/о н/о +20.9 +12.0 57 +24 +24 комфорт 1020.2 1008.4
09 20.08 С 1 н/о н/о +24.0 +12.6 49 +26 +26 жарко 1019.6 1007.9
12 20.08 СЗ 3 н/о н/о +21.1 +16.2 74 +24 +24 комфорт 1019.8 1008.0 +24.3
15 20.08 штиль 0 н/о н/о +15.1 +14.0 93 +15 +15 1020.3 1008.2
18 20.08 С 1 н/о н/о +12.7 +11.8 94 +13 +13 1020.9 1008.7
21 20.08 В 2 н/о н/о +14.6 +11.5 82 +14 +14 1020.9 1008.8
03 21.08 СВ 2 н/о н/о +18.7 +12.5 67 +20 +20 1021.2 1009.3
06 21.08 СВ 2 н/о н/о +22.0 +12.7 56 +25 +25 комфорт 1020.2 1008.4
09 21.08 СВ 2 н/о н/о +22.9 +10.9 47 +25 +25 комфорт 1019.3 1007.6
12 21.08 СВ 1 н/о н/о +21.2 +11.3 53 +23 +23 комфорт 1018.8 1007.0 +23.7
15 21.08 ЮВ 1 н/о н/о +14.2 +12.8 91 +14 +14 1018.7 1006.6
18 21.08 С 1 н/о н/о +14.7 +13.5 93 +15 +15 1018.0 1005.9
21 21.08 С 1 н/о н/о +13.3 +11.4 88 +13 +13 1017.1 1005.0
00 22.08 В 1 н/о н/о +15.0 +12.1 83 +16 +16 1016.9 1004.9 +13.2
03 22.08 В 1 н/о н/о +17.4 +12.8 74 +18 +18 1016.2 1004.3
06 22.08 С 2 н/о н/о +20.8 +12.8 60 +24 +24 комфорт 1014.8 1003.0
09 22.08 С 1 н/о н/о +21.8 +12.9 57 +24 +24 комфорт 1013.6 1001.9
12 22.08 В 2 н/о н/о +16.4 +10.5 68 +17 +17 1014.0 1002.1 +22.3
15 22.08 СВ 1 н/о н/о +13.1 +11.6 91 +13 +13 1013.1 1001.0
18 22.08 штиль 0 н/о н/о +12.0 +11.0 94 +11 +11 1012.3 1000.2
21 22.08 штиль 0 н/о н/о +9.2 +8.3 94 +8 +8 1011.9 999.7
00 23.08 Ю 1 н/о н/о +9.7 +8.8 94 +9 +9 1011.5 999.3 +9.2 0.0
03 23.08 СВ 1 н/о н/о +17.4 +12.4 72 +18 +18 1010.7 998.9
06 23.08 СВ 2 н/о н/о +19.1 +12.5 66 +21 +21 комфорт 1009.7 997.9
09 23.08 Ю 1 н/о н/о +19.4 +12.9 66 +22 +22 комфорт 1008.8 997.1
12 23.08 С 1 н/о н/о +18.0 +12.5 70 +19 +19 1008.9 997.1 +20.8
15 23.08 Ю 2 н/о н/о +14.0 +11.8 87 +13 +13 1009.1 997.1
18 23.08 С 1 н/о н/о +11.1 +10.1 94 +11 +11 1008.8 996.7
21 23.08 штиль 0 н/о н/о +9.9 +9.1 95 +9 +9 1008.4 996.2
00 24.08 Ю 1 н/о н/о +10.8 +9.8 94 +10 +10 1007.9 995.8 +9.4
03 24.08 З 1 н/о н/о +17.0 +11.4 70 +18 +18 1007.6 995.7
09 24.08 ЮЗ 3 н/о н/о +20.6 +10.5 52 +23 +23 комфорт 1005.6 993.9
12 24.08 ЮВ 1 н/о н/о +18.4 +13.3 72 +20 +20 1005.4 993.7 +21.5

 

Местоположение метеостанции Светлогорск (Красноярский край, Россия): широта 66.95 долгота 88.42 высота над уровнем моря 101 м.

В архиве по умолчанию представлена погода в Светлогорске за последнюю неделю. Архивные данные за месяц целиком и за предыдущие месяцы, начиная с января 2011 года, Вы можете получить, выбрав интересующий диапазон дат из раскрывающегося списка и нажав кнопку "Ввод!".


*Определитесь, кто Вы:
робот инопланетянин человек

Внимание! Время в таблицах - всемирное. Для получения местного времени необходимо прибавить поправку, которая равна 7 ч.

Смотрите также архив погоды в соседних городах и на ближайших метеорологических станциях:

Погода в Горбиачине (Красноярский край, Россия) (64 км)
Погода в Курейке (Красноярский край, Россия) (75 км)
Погода в Игарке (Красноярский край, Россия) (98 км)
Погода в Снежногорске (Красноярский край, Россия) (131 км)
Погода в Туруханске (Красноярский край, Россия) (132 км)
Погода в Большом Пороге (Эвенкия, Россия) (164 км)
Погода в Советской Речке (Красноярский край, Россия) (202 км)
Погода в Потапово (Красноярский край, Россия) (212 км)
Погода в Агате (Эвенкия, Россия) (220 км)
Погода в Норильске (Красноярский край, Россия) (265 км)

Пояснения к столбцам:

Ветер - указаны скорость ветра в м/с - средняя за 10 мин, порывы в срок и между сроками (в фигурных скобках) и направление, откуда дует ветер: С - северный, СВ - северо-восточный, В - восточный, ЮВ - юго-восточный, Ю - южный, ЮЗ - юго-западный, З - западный, СЗ - северо-западный.
Видимость - горизонтальная дальность видимости в метрах или километрах. При видимости от 1 до 10 км при отсутствии осадков обычно наблюдается дымка, при ухудшении видимости до 1 км и менее - туман. В сухую погоду видимость может ухудшаться дымом, пылью или мглою.
Явления - указаны атмосферные явления, наблюдавшиеся в срок или в последний час перед сроком; фигурными скобками обозначены явления, наблюдавшиеся между сроками (за 1-3 часа до срока); квадратными скобками обозначены град или гололедные отложения с указанием их диаметра в мм.
Облачность - указаны через наклонную черту общая и нижняя облачность в баллах и высота нижней границы облаков в метрах; квадратными скобками обозначены формы облаков: Ci - перистые, Cs - перисто-слоистые, Cc - перисто-кучевые, Ac - высококучевые, As - высокослоистые, Sc - слоисто-кучевые, Ns - слоисто-дождевые, Cu - кучевые, Cb - кучево-дождевые. Подробнее классификацию облаков см. в Атласе облаков (PDF).
T - Температура воздуха - температура, измеренная на высоте 2 м над землей.
Td - Температура точки росы - температура, при понижении до которой содержащийся в воздухе водяной пар достигнет насыщения.
f - Относительная влажность воздуха - влажноcть воздуха, измеренная на высоте 2 м над землей.
Te - Эффективная температура - температура, которую ощущает одетый по сезону человек в тени. Характеристика душности погоды. При расчете учитывается влияние влажности воздуха и скорости ветра на теплоощущения человека.
Tes - Эффективная температура на солнце - температура, которую ощущает человек, с поправкой на солнечный нагрев. Характеристика знойности погоды. Зависит от высоты солнца над горизонтом, облачности и скорости ветра. Ночью, в пасмурную погоду, а также при ветре 12 м/с и более поправка равна нулю.
P - Атмосферное давление - приведенное к уровню моря атмосферное давление.
Po - Атмосферное давление - измеренное на уровне метеостанции атмосферное давление.
Tmin - Минимальная температура - минимум температуры воздуха на высоте 2 м над землей.
Tmax - Максимальная температура - максимум температуры воздуха на высоте 2 м над землей.
R - Количество осадков - Количество выпавших осадков за период времени, мм. При наведении курсора мыши на число - период времени, за который выпало указанное количество осадков.
R24 - Количество осадков - Количество выпавших осадков за 24 часа, мм.
S - Снежный покров - Высота снежного покрова, см. При наведении курсора мыши на число - состояние снежного покрова и степень покрытия местности в баллах.